Weather History for Elkins, WV

Change the Weather History Date:

Monday, October 11, 2010

  Actual Average Record
Temperature  
Mean Temperature 63 °F 53 °F  
Max Temperature 79 °F 65 °F 84 °F (1949)
Min Temperature 46 °F 40 °F 19 °F (1964)
Degree Days  
Heating Degree Days 2 12  
Month to date heating degree days 132 118  
Since 1 July heating degree days 237 278  
Cooling Degree Days 0 0  
Month to date cooling degree days 0 0  
Year to date cooling degree days 715 471  
Growing Degree Days 12 (Base 50)    
Moisture  
Dew Point 47 °F    
Average Humidity 63    
Maximum Humidity 93    
Minimum Humidity 32    
Precipitation  
Precipitation 0.00 in 0.09 in 1.50 in (1909)
Month to date precipitation 1.24 1.03  
Year to date precipitation 32.98 37.47  
Snow  
Snow 0.00 in - - ()
Month to date snowfall 0.0  
Since 1 September snowfall 0.0  
Snow Depth 0.00 in    
Sea Level Pressure  
Sea Level Pressure 29.95 in    
Wind  
Wind Speed 2 mph (West)    
Max Wind Speed 15 mph    
Max Gust Speed 21 mph    
Visibility 10 miles    
Events      
T = Trace of Precipitation, MM = Missing Value Source: NWS Daily Summary

Daily Weather History Graph

Daily Weather History Graph

Search for Another Location

Airport:

Trip Planner

Search our weather history database for the weather conditions in past years. The results will help you decide how hot, cold, wet, or windy it might be!

Date:

Astronomy

Oct. 11, 2010 Rise Set
Actual Time 7:24 AM EDT 6:46 PM EDT
Civil Twilight 6:58 AM EDT 7:13 PM EDT
Nautical Twilight 6:27 AM EDT 7:44 PM EDT
Astronomical Twilight 5:56 AM EDT 8:15 PM EDT
Moon 11:56 AM EDT (10/11) 9:25 PM EDT (10/11)
Length of Visible Light 12h 15m
Length of Day
11h 21m
Waxing Crescent, 19% of the Moon is Illuminated
Oct 11
Waxing Crescent
Oct 14
First Quarter
Oct 22
Full
Oct 30
Last Quarter
Nov 6
New

Hourly Weather History & Observations

Time (EDT) Temp. Dew Point Humidity Pressure Visibility Wind Dir Wind Speed Gust Speed Precip Events Conditions
12:51 AM 48.9 °F 46.0 °F 90% 29.98 in 10.0 mi Calm Calm - N/A   Partly Cloudy
1:51 AM 46.9 °F 45.0 °F 93% 29.97 in 10.0 mi Calm Calm - N/A   Mostly Cloudy
2:51 AM 50.0 °F 46.9 °F 89% 29.97 in 10.0 mi Calm Calm - N/A   Overcast
3:51 AM 48.9 °F 46.0 °F 90% 29.96 in 10.0 mi Calm Calm - N/A   Overcast
4:51 AM 48.2 °F 44.6 °F 87% 29.97 in 10.0 mi Calm Calm - N/A   Mostly Cloudy
5:51 AM 50.0 °F 46.0 °F 86% 29.97 in 10.0 mi Calm Calm - N/A   Overcast
6:51 AM 46.0 °F 45.0 °F 96% 30.00 in 9.0 mi Calm Calm - N/A   Mostly Cloudy
7:51 AM 46.9 °F 45.0 °F 93% 30.01 in 6.0 mi Calm Calm - N/A   Mostly Cloudy
8:51 AM 53.1 °F 46.9 °F 80% 30.01 in 10.0 mi Calm Calm - N/A   Clear
9:51 AM 57.9 °F 48.9 °F 72% 30.00 in 10.0 mi Calm Calm - N/A   Clear
10:51 AM 66.0 °F 51.1 °F 59% 29.98 in 10.0 mi Calm Calm - N/A   Partly Cloudy
11:51 AM 73.9 °F 48.9 °F 41% 29.97 in 10.0 mi Calm Calm - N/A   Clear
12:51 PM 77.0 °F 50.0 °F 39% 29.95 in 10.0 mi Variable 5.8 mph - N/A   Clear
1:51 PM 78.1 °F 50.0 °F 37% 29.92 in 10.0 mi West 6.9 mph - N/A   Clear
2:51 PM 79.0 °F 48.0 °F 34% 29.90 in 10.0 mi WNW 12.7 mph - N/A   Partly Cloudy
3:51 PM 78.1 °F 46.9 °F 33% 29.89 in 10.0 mi WSW 10.4 mph - N/A   Clear
4:51 PM 78.1 °F 48.0 °F 35% 29.89 in 10.0 mi WNW 5.8 mph - N/A   Clear
5:51 PM 75.9 °F 45.0 °F 33% 29.88 in 10.0 mi West 5.8 mph - N/A   Clear
6:51 PM 64.0 °F 50.0 °F 60% 29.91 in 10.0 mi Calm Calm - N/A   Clear
7:51 PM 57.0 °F 48.9 °F 74% 29.93 in 10.0 mi Calm Calm - N/A   Clear
8:51 PM 53.1 °F 48.9 °F 86% 29.94 in 10.0 mi Calm Calm - N/A   Clear
9:51 PM 51.1 °F 48.0 °F 89% 29.94 in 10.0 mi Calm Calm - N/A   Clear
10:51 PM 50.0 °F 46.9 °F 89% 29.92 in 7.0 mi Calm Calm - N/A   Clear
11:51 PM 48.0 °F 46.0 °F 93% 29.91 in 7.0 mi Calm Calm - N/A   Clear